sat.trackr.live / text

‹ back to catalog

QIANFAN-104

NORAD 66046 · 2025-233P

PAYLOAD ACTIVE UNKNOWN

§ Identity

Operator
Country
PRC
Launch date
2025-10-17
Launch site
TAISC
Launch vehicle
Mass (kg)
RCS (m²)

External: N2YO · Heavens-Above · Gunter

§ Orbital elements

Epoch: 2026-05-25T03:40:38.267616Z

Period
106.59 min
Inclination
89.0031°
Eccentricity
0.0002138
Mean motion
13.51009444 rev/d
Perigee alt
1,067.0 km
Apogee alt
1,070.1 km
Semi-major
7,446.7 km
B*
1.9211e-4
RAAN
45.4232°
Arg perigee
75.8853°
Mean anomaly
284.2535°
Rev number
3,012

§ Raw data

QIANFAN-1041 66046U 25233P   26145.15322069  .00000136  00000+0  19211-3 0  99992 66046  89.0031  45.4232 0002138  75.8853 284.2535 13.51009444 30121

JSON: /api/v1/satellites/66046 · /tle

For live sub-satellite position, see the globe view (requires WebGL).

§ Visibility from observer

Set your observer location to see the next 7 days of passes ≥ 10°. The values pass through the URL so the page stays shareable.

No JS? Fill the form by hand. The geolocation button needs JavaScript.